TimeEST,TemperatureF,Dew PointF,Humidity,Sea Level PressureIn,VisibilityMPH,Wind Direction,Wind SpeedMPH,Gust SpeedMPH,PrecipitationIn,Events,Conditions,WindDirDegrees,DateUTC
12:15 AM,28.4,26.6,93,30.06,2.0,ESE,11.5,-,N/A,,Overcast,110,2013-01-28 05:15:00
12:35 AM,28.4,28.4,100,30.05,2.5,ESE,11.5,-,N/A,,Overcast,110,2013-01-28 05:35:00
12:55 AM,28.4,28.4,100,30.05,2.5,ESE,9.2,-,N/A,,Overcast,110,2013-01-28 05:55:00
1:15 AM,28.4,28.4,100,30.03,2.5,East,10.4,-,N/A,,Overcast,100,2013-01-28 06:15:00
1:35 AM,28.4,28.4,100,30.02,2.0,ESE,11.5,-,N/A,,Overcast,110,2013-01-28 06:35:00
1:55 AM,28.4,28.4,100,30.01,2.0,ESE,11.5,-,N/A,,Overcast,110,2013-01-28 06:55:00
2:15 AM,28.4,28.4,100,30.00,1.5,ESE,11.5,-,N/A,,Overcast,110,2013-01-28 07:15:00
2:35 AM,28.4,28.4,100,29.99,1.8,ESE,10.4,-,0.01,,Overcast,110,2013-01-28 07:35:00
2:55 AM,28.4,28.4,100,29.98,1.2,East,8.1,-,0.01,,Overcast,100,2013-01-28 07:55:00
3:15 AM,28.4,28.4,100,29.97,2.5,East,9.2,-,N/A,,Mostly Cloudy,100,2013-01-28 08:15:00
3:35 AM,28.4,28.4,100,29.96,2.0,ESE,10.4,-,N/A,,Overcast,110,2013-01-28 08:35:00
3:55 AM,28.4,26.6,93,29.94,2.5,ESE,11.5,-,N/A,,Overcast,110,2013-01-28 08:55:00
4:15 AM,28.4,28.4,100,29.93,2.0,ESE,10.4,-,N/A,,Overcast,110,2013-01-28 09:15:00
4:35 AM,28.4,28.4,100,29.92,4.0,ESE,10.4,-,N/A,,Overcast,110,2013-01-28 09:35:00
4:55 AM,28.4,28.4,100,29.91,3.0,ESE,11.5,-,N/A,,Overcast,120,2013-01-28 09:55:00
5:15 AM,30.2,30.2,100,29.91,2.5,SE,12.7,-,N/A,,Overcast,130,2013-01-28 10:15:00
5:35 AM,30.2,30.2,100,29.90,2.0,SE,12.7,-,N/A,,Overcast,140,2013-01-28 10:35:00
5:55 AM,30.2,30.2,100,29.89,2.5,SE,9.2,-,0.01,,Overcast,130,2013-01-28 10:55:00
6:15 AM,30.2,30.2,100,29.88,2.5,SE,9.2,-,N/A,,Overcast,130,2013-01-28 11:15:00
6:35 AM,30.2,30.2,100,29.86,2.0,ESE,11.5,-,N/A,,Overcast,120,2013-01-28 11:35:00
6:55 AM,30.2,30.2,100,29.86,4.0,SE,12.7,-,N/A,,Overcast,130,2013-01-28 11:55:00
7:15 AM,28.4,28.4,100,29.86,5.0,SE,9.2,-,N/A,,Overcast,130,2013-01-28 12:15:00
7:35 AM,28.4,28.4,100,29.85,5.0,SE,10.4,-,N/A,,Overcast,130,2013-01-28 12:35:00
7:55 AM,28.4,28.4,100,29.84,3.0,SE,9.2,-,N/A,,Overcast,130,2013-01-28 12:55:00
8:15 AM,28.4,28.4,100,29.84,1.8,SE,8.1,-,N/A,,Overcast,140,2013-01-28 13:15:00
8:35 AM,28.4,28.4,100,29.85,2.0,SE,5.8,-,N/A,,Overcast,140,2013-01-28 13:35:00
8:55 AM,28.4,28.4,100,29.84,2.0,ESE,5.8,-,N/A,,Overcast,120,2013-01-28 13:55:00
9:15 AM,30.2,30.2,100,29.83,1.2,ESE,4.6,-,N/A,,Overcast,110,2013-01-28 14:15:00
9:35 AM,30.2,30.2,100,29.83,2.0,East,3.5,-,N/A,,Overcast,90,2013-01-28 14:35:00
9:55 AM,30.2,30.2,100,29.82,1.0,East,4.6,-,N/A,,Overcast,90,2013-01-28 14:55:00
10:15 AM,30.2,30.2,100,29.83,1.2,East,3.5,-,0.01,,Overcast,90,2013-01-28 15:15:00
10:35 AM,30.2,30.2,100,29.83,1.2,East,3.5,-,0.01,,Overcast,90,2013-01-28 15:35:00
10:55 AM,30.2,28.4,93,29.83,1.0,Calm,Calm,-,0.01,,Overcast,0,2013-01-28 15:55:00
11:15 AM,32.0,30.2,93,29.83,2.0,Calm,Calm,-,0.01,,Overcast,0,2013-01-28 16:15:00
11:35 AM,32.0,30.2,93,29.83,3.0,Calm,Calm,-,0.02,,Overcast,0,2013-01-28 16:35:00
11:55 AM,32.0,30.2,93,29.83,5.0,NE,3.5,-,0.03,,Overcast,50,2013-01-28 16:55:00
12:15 PM,32.0,30.2,93,29.83,3.0,NNE,3.5,-,N/A,,Overcast,20,2013-01-28 17:15:00
12:35 PM,32.0,30.2,93,29.83,5.0,North,3.5,-,N/A,,Overcast,10,2013-01-28 17:35:00
12:55 PM,32.0,30.2,93,29.83,3.0,North,3.5,-,N/A,,Overcast,10,2013-01-28 17:55:00
1:15 PM,32.0,30.2,93,29.83,4.0,Calm,Calm,-,N/A,,Overcast,0,2013-01-28 18:15:00
1:35 PM,32.0,30.2,93,29.81,8.0,North,4.6,-,N/A,,Overcast,10,2013-01-28 18:35:00
1:55 PM,32.0,30.2,93,29.81,7.0,NE,6.9,-,N/A,,Overcast,50,2013-01-28 18:55:00
2:15 PM,32.0,30.2,93,29.81,10.0,NNE,6.9,-,N/A,,Overcast,30,2013-01-28 19:15:00
2:35 PM,32.0,30.2,93,29.81,10.0,NNE,5.8,-,N/A,,Overcast,30,2013-01-28 19:35:00
2:55 PM,33.8,30.2,87,29.82,10.0,NNE,4.6,-,N/A,,Overcast,30,2013-01-28 19:55:00
3:15 PM,33.8,30.2,87,29.84,10.0,North,4.6,-,N/A,,Overcast,360,2013-01-28 20:15:00
3:35 PM,33.8,30.2,87,29.84,9.0,NNE,3.5,-,N/A,,Overcast,20,2013-01-28 20:35:00
3:55 PM,33.8,30.2,87,29.85,10.0,Calm,Calm,-,N/A,,Overcast,0,2013-01-28 20:55:00
4:15 PM,33.8,30.2,87,29.86,7.0,North,3.5,-,N/A,,Overcast,10,2013-01-28 21:15:00
4:35 PM,33.8,30.2,87,29.87,10.0,NNE,3.5,-,N/A,,Overcast,20,2013-01-28 21:35:00
4:55 PM,32.0,30.2,93,29.87,10.0,North,4.6,-,N/A,,Overcast,360,2013-01-28 21:55:00
5:15 PM,32.0,30.2,93,29.89,10.0,Calm,Calm,-,N/A,,Overcast,0,2013-01-28 22:15:00
5:35 PM,32.0,30.2,93,29.90,10.0,Calm,Calm,-,N/A,,Overcast,0,2013-01-28 22:35:00
5:55 PM,32.0,30.2,93,29.91,10.0,Calm,Calm,-,N/A,,Overcast,0,2013-01-28 22:55:00
6:15 PM,32.0,30.2,93,29.92,10.0,Calm,Calm,-,N/A,,Overcast,0,2013-01-28 23:15:00
6:35 PM,32.0,30.2,93,29.93,10.0,Calm,Calm,-,N/A,,Overcast,0,2013-01-28 23:35:00
6:55 PM,32.0,30.2,93,29.92,10.0,Calm,Calm,-,N/A,,Overcast,0,2013-01-28 23:55:00
7:15 PM,30.2,28.4,93,29.92,8.0,ENE,3.5,-,N/A,,Overcast,60,2013-01-29 00:15:00
7:35 PM,30.2,30.2,100,29.94,8.0,Calm,Calm,-,N/A,,Overcast,0,2013-01-29 00:35:00
7:55 PM,30.2,30.2,100,29.95,7.0,Calm,Calm,-,N/A,,Overcast,0,2013-01-29 00:55:00
8:15 PM,30.2,30.2,100,29.94,7.0,Calm,Calm,-,N/A,,Overcast,0,2013-01-29 01:15:00
8:35 PM,30.2,28.4,93,29.95,5.0,Calm,Calm,-,N/A,,Overcast,0,2013-01-29 01:35:00
8:55 PM,30.2,30.2,100,29.96,5.0,Calm,Calm,-,N/A,,Overcast,0,2013-01-29 01:55:00
9:15 PM,30.2,28.4,93,29.96,7.0,Calm,Calm,-,N/A,,Overcast,0,2013-01-29 02:15:00
9:35 PM,30.2,30.2,100,29.96,4.0,Calm,Calm,-,N/A,,Overcast,0,2013-01-29 02:35:00
9:55 PM,30.2,28.4,93,29.96,5.0,SSE,3.5,-,N/A,,Overcast,150,2013-01-29 02:55:00
10:15 PM,30.2,28.4,93,29.96,7.0,ESE,3.5,-,N/A,,Overcast,120,2013-01-29 03:15:00
10:35 PM,30.2,30.2,100,29.96,10.0,SE,4.6,-,N/A,,Overcast,140,2013-01-29 03:35:00
10:55 PM,30.2,28.4,93,29.96,10.0,SE,6.9,-,N/A,,Overcast,130,2013-01-29 03:55:00
11:15 PM,30.2,28.4,93,29.96,10.0,ESE,6.9,-,N/A,,Overcast,120,2013-01-29 04:15:00
11:35 PM,30.2,28.4,93,29.96,10.0,SE,5.8,-,N/A,,Overcast,140,2013-01-29 04:35:00
11:55 PM,30.2,28.4,93,29.96,10.0,SE,8.1,-,N/A,,Overcast,130,2013-01-29 04:55:00